SP6PWT-13 Weather Reports


Display with metric or nautical units.
time (UTC)temp
F
wind
direction
speed
MPH
gust
MPH
rain 1hr
in
rain 24hr
in
rain mn
in
humidity
%
barometer
mb
20260503034006 51 130 5.0 7.0 0.00 0.00 0.00 64 1000.8
20260503033506 52 120 6.0 7.0 0.00 0.00 0.00 63 1000.8
20260503033006 52 126 7.0 8.0 0.00 0.00 0.00 62 1000.8
20260503032505 52 146 7.0 8.0 0.00 0.00 0.00 62 1000.9
20260503032004 53 131 9.0 10.0 0.00 0.00 0.00 61 1001.0
20260503031504 53 126 9.0 10.0 0.00 0.00 0.00 60 1000.9
20260503031002 53 136 10.0 11.0 0.00 0.00 0.00 60 1001.1
20260503030502 53 128 10.0 10.0 0.00 0.00 0.00 60 1000.8
20260503030002 53 131 10.0 11.0 0.00 0.00 0.00 59 1001.1
20260503025502 54 115 9.0 10.0 0.00 0.00 0.00 59 1001.0
20260503025001 54 130 9.0 10.0 0.00 0.00 0.00 59 1000.9
20260503024501 54 121 7.0 9.0 0.00 0.00 0.00 59 1001.0
20260503024001 54 122 7.0 8.0 0.00 0.00 0.00 59 1001.0
20260503023501 54 115 7.0 7.0 0.00 0.00 0.00 59 1001.2
20260503023000 54 136 6.0 8.0 0.00 0.00 0.00 59 1001.0
20260503022500 54 128 7.0 7.0 0.00 0.00 0.00 58 1001.2
20260503021959 54 135 7.0 7.0 0.00 0.00 0.00 58 1001.0
20260503021459 54 143 6.0 8.0 0.00 0.00 0.00 58 1000.9
20260503020958 54 139 6.0 7.0 0.00 0.00 0.00 58 1001.2
20260503020458 54 149 5.0 7.0 0.00 0.00 0.00 58 1001.2
20260503015958 54 140 6.0 8.0 0.00 0.00 0.00 58 1001.3
20260503015458 54 160 6.0 8.0 0.00 0.00 0.00 58 1001.3
20260503014957 54 144 8.0 8.0 0.00 0.00 0.00 58 1001.3
20260503014457 54 153 9.0 10.0 0.00 0.00 0.00 59 1001.4
20260503013956 54 130 8.0 10.0 0.00 0.00 0.00 59 1001.3
20260503013455 54 126 9.0 10.0 0.00 0.00 0.00 59 1001.3
20260503012955 55 131 8.0 9.0 0.00 0.00 0.00 59 1001.2
20260503012455 54 134 7.0 9.0 0.00 0.00 0.00 59 1001.4
20260503011954 55 155 7.0 9.0 0.00 0.00 0.00 59 1001.5
20260503011452 54 140 9.0 9.0 0.00 0.00 0.00 59 1001.3
20260503010952 54 140 7.0 8.0 0.00 0.00 0.00 59 1001.4
20260503010451 54 135 8.0 9.0 0.00 0.00 0.00 59 1001.4
20260503005951 54 147 8.0 10.0 0.00 0.00 0.00 59 1001.5
20260503005450 55 135 6.0 9.0 0.00 0.00 0.00 59 1001.4
20260503004949 55 139 6.0 8.0 0.00 0.00 0.00 59 1001.4
20260503004449 55 142 7.0 10.0 0.00 0.00 0.00 59 1001.5
20260503003947 55 146 8.0 9.0 0.00 0.00 0.00 59 1001.5
20260503003447 55 163 5.0 8.0 0.00 0.00 0.00 59 1001.8
20260503002946 55 161 7.0 9.0 0.00 0.00 0.00 58 1001.7
20260503002446 55 133 7.0 9.0 0.00 0.00 0.00 58 1001.6
20260503001945 55 153 7.0 10.0 0.00 0.00 0.00 58 1001.6
20260503001445 55 145 7.0 10.0 0.00 0.00 0.00 58 1001.8
20260503000945 56 143 8.0 10.0 0.00 0.00 0.00 58 1001.7
20260503000444 56 146 11.0 13.0 0.00 0.00 0.00 57 1001.7
20260502235944 55 134 12.0 13.0 0.00 0.00 0.00 58 1001.9
20260502235444 55 137 10.0 13.0 0.00 0.00 0.00 58 1001.9
20260502234944 55 139 9.0 10.0 0.00 0.00 0.00 59 1002.0
20260502234443 55 140 7.0 9.0 0.00 0.00 0.00 60 1001.9
20260502233942 55 139 9.0 10.0 0.00 0.00 0.00 59 1002.0
20260502233442 55 137 9.0 9.0 0.00 0.00 0.00 58 1001.9
20260502232942 55 151 7.0 8.0 0.00 0.00 0.00 58 1002.3
20260502232441 55 140 7.0 8.0 0.00 0.00 0.00 58 1001.9
20260502231941 56 139 5.0 7.0 0.00 0.00 0.00 57 1002.1
20260502231430 56 145 6.0 7.0 0.00 0.00 0.00 57 1002.1
20260502230930 56 148 5.0 6.0 0.00 0.00 0.00 56 1002.2
20260502213757 61 143 6.0 8.0 0.00 0.00 0.00 45 1002.2
20260502213256 62 138 6.0 7.0 0.00 0.00 0.00 45 1002.3
20260502212756 62 143 6.0 7.0 0.00 0.00 0.00 45 1002.3
20260502212255 62 150 5.0 7.0 0.00 0.00 0.00 44 1002.2
20260502211755 62 150 6.0 7.0 0.00 0.00 0.00 44 1002.3
20260502211254 62 141 6.0 6.0 0.00 0.00 0.00 44 1002.2
20260502210753 62 148 6.0 7.0 0.00 0.00 0.00 44 1002.5
20260502210253 63 142 7.0 7.0 0.00 0.00 0.00 43 1002.5
20260502205752 63 144 6.0 7.0 0.00 0.00 0.00 43 1002.5
20260502205252 63 138 5.0 7.0 0.00 0.00 0.00 43 1002.6
20260502204751 64 141 5.0 8.0 0.00 0.00 0.00 42 1002.3
20260502204251 64 156 6.0 8.0 0.00 0.00 0.00 42 1002.6
20260502203750 64 141 7.0 8.0 0.00 0.00 0.00 41 1002.6
20260502203250 64 149 8.0 8.0 0.00 0.00 0.00 41 1002.6
20260502202750 65 158 6.0 8.0 0.00 0.00 0.00 40 1002.7
20260502202249 65 157 6.0 8.0 0.00 0.00 0.00 40 1002.8
20260502201749 65 157 6.0 9.0 0.00 0.00 0.00 40 1002.8
20260502201248 65 158 6.0 8.0 0.00 0.00 0.00 40 1002.6
20260502200748 65 158 6.0 9.0 0.00 0.00 0.00 40 1002.8
20260502200247 66 140 6.0 8.0 0.00 0.00 0.00 40 1002.9
20260502195747 66 156 7.0 8.0 0.00 0.00 0.00 39 1002.9
20260502195247 66 157 7.0 8.0 0.00 0.00 0.00 39 1002.9
20260502194747 67 159 7.0 8.0 0.00 0.00 0.00 38 1002.8
20260502194246 67 145 7.0 8.0 0.00 0.00 0.00 37 1002.8
20260502193746 68 150 8.0 8.0 0.00 0.00 0.00 37 1002.8
20260502193246 68 149 7.0 8.0 0.00 0.00 0.00 36 1002.7
20260502192745 68 154 7.0 8.0 0.00 0.00 0.00 36 1002.9
20260502192244 69 147 7.0 8.0 0.00 0.00 0.00 35 1002.8
20260502191744 69 143 7.0 9.0 0.00 0.00 0.00 35 1002.9
20260502191234 69 171 9.0 10.0 0.00 0.00 0.00 34 1002.8
20260502190733 69 146 9.0 9.0 0.00 0.00 0.00 33 1002.8
20260502190232 69 144 7.0 8.0 0.00 0.00 0.00 33 1002.8
20260502185722 69 157 6.0 7.0 0.00 0.00 0.00 33 1002.8
20260502185222 69 156 6.0 6.0 0.00 0.00 0.00 33 1002.9
20260502184721 69 160 5.0 6.0 0.00 0.00 0.00 33 1002.8
20260502184220 69 156 5.0 5.0 0.00 0.00 0.00 33 1002.7
20260502183710 70 147 5.0 6.0 0.00 0.00 0.00 33 1002.8
20260502183209 70 151 5.0 7.0 0.00 0.00 0.00 33 1002.7
20260502182709 70 156 6.0 7.0 0.00 0.00 0.00 33 1002.7
20260502182208 70 149 6.0 7.0 0.00 0.00 0.00 33 1002.7
20260502181658 70 148 6.0 8.0 0.00 0.00 0.00 33 1002.3
20260502181157 71 136 6.0 7.0 0.00 0.00 0.00 32 1002.4
20260502180647 71 148 5.0 7.0 0.00 0.00 0.00 32 1002.7
20260502180147 71 152 5.0 7.0 0.00 0.00 0.00 31 1002.5
20260502164031 74 129 5.0 9.0 0.00 0.00 0.00 28 1003.3
20260502163530 74 153 7.0 10.0 0.00 0.00 0.00 28 1003.2
20260502163020 74 136 8.0 10.0 0.00 0.00 0.00 28 1003.2
20260502162519 74 179 9.0 10.0 0.00 0.00 0.00 28 1003.3
20260502162009 75 189 7.0 8.0 0.00 0.00 0.00 28 1003.5
20260502161509 74 169 3.0 6.0 0.00 0.00 0.00 28 1003.6
20260502160958 75 177 9.0 11.0 0.00 0.00 0.00 28 1003.7
20260502160458 74 257 4.0 7.0 0.00 0.00 0.00 29 1003.8
20260502151914 74 233 2.0 3.0 0.00 0.00 0.00 29 1004.2
20260502151403 74 134 6.0 8.0 0.00 0.00 0.00 29 1004.2
20260502150903 74 163 2.0 9.0 0.00 0.00 0.00 29 1004.3
20260502150353 75 132 6.0 10.0 0.00 0.00 0.00 29 1004.4
20260502130712 76 149 1.0 7.0 0.00 0.00 0.00 28 1005.5
20260502130212 75 158 3.0 6.0 0.00 0.00 0.00 28 1005.7
20260502123650 74 245 3.0 3.0 0.00 0.00 0.00 29 1006.0
20260502123150 74 145 5.0 6.0 0.00 0.00 0.00 29 1006.3
20260502122639 75 129 7.0 14.0 0.00 0.00 0.00 29 1006.2
20260502122139 75 97 2.0 3.0 0.00 0.00 0.00 28 1006.4
20260502121628 73 141 0.0 2.0 0.00 0.00 0.00 29 1006.4
20260502121128 73 134 5.0 10.0 0.00 0.00 0.00 29 1006.4
20260502120627 74 144 1.0 6.0 0.00 0.00 0.00 29 1006.6
20260502120117 74 127 3.0 6.0 0.00 0.00 0.00 28 1006.5
20260502115617 73 343 2.0 5.0 0.00 0.00 0.00 28 1006.6
20260502115106 73 13 3.0 7.0 0.00 0.00 0.00 28 1006.7
20260502114606 73 57 4.0 7.0 0.00 0.00 0.00 28 1006.8
20260502114055 74 291 3.0 7.0 0.00 0.00 0.00 29 1006.8
20260502113555 73 126 4.0 7.0 0.00 0.00 0.00 30 1006.9
20260502113055 73 94 1.0 2.0 0.00 0.00 0.00 30 1006.7
20260502112544 73 95 5.0 10.0 0.00 0.00 0.00 30 1006.9
20260502112044 73 25 2.0 6.0 0.00 0.00 0.00 30 1007.1
20260502111544 72 135 3.0 6.0 0.00 0.00 0.00 29 1007.0
20260502111043 74 136 12.0 13.0 0.00 0.00 0.00 29 1007.0
20260502110533 73 176 3.0 7.0 0.00 0.00 0.00 29 1007.1
20260502110033 73 41 1.0 6.0 0.00 0.00 0.00 29 1007.1
20260502105532 73 217 3.0 7.0 0.00 0.00 0.00 30 1007.2
20260502105032 72 171 1.0 3.0 0.00 0.00 0.00 30 1007.4
20260502104532 72 150 5.0 9.0 0.00 0.00 0.00 30 1007.3
20260502104023 73 137 8.0 9.0 0.00 0.00 0.00 30 1007.4
20260502103521 73 344 1.0 9.0 0.00 0.00 0.00 30 1007.6
20260502103010 73 90 5.0 7.0 0.00 0.00 0.00 30 1007.7
20260502102510 73 343 1.0 6.0 0.00 0.00 0.00 31 1007.6
20260502102010 73 213 3.0 5.0 0.00 0.00 0.00 30 1007.6
20260502101509 72 288 1.0 7.0 0.00 0.00 0.00 31 1007.7
20260502101009 72 168 1.0 2.0 0.00 0.00 0.00 31 1007.8
20260502100509 73 209 3.0 6.0 0.00 0.00 0.00 31 1007.9
20260502091506 71 95 1.0 2.0 0.00 0.00 0.00 34 1008.2
20260502091005 70 125 1.0 5.0 0.00 0.00 0.00 35 1008.4
20260502090505 71 148 5.0 8.0 0.00 0.00 0.00 34 1008.3
20260502071457 63 120 1.0 2.0 0.00 0.00 0.00 52 1008.9
20260502070957 63 97 0.0 2.0 0.00 0.00 0.00 52 1009.1
20260502070456 64 171 1.0 3.0 0.00 0.00 0.00 51 1009.0
20260502065956 62 127 0.0 1.0 0.00 0.00 0.00 54 1008.8
20260502065456 62 164 2.0 3.0 0.00 0.00 0.00 55 1008.9
20260502064956 62 124 1.0 3.0 0.00 0.00 0.00 56 1009.0
20260502064455 60 116 2.0 3.0 0.00 0.00 0.00 57 1008.8
20260502063955 60 114 3.0 5.0 0.00 0.00 0.00 57 1009.0
20260502063454 60 140 1.0 3.0 0.00 0.00 0.00 59 1008.8
20260502062953 59 114 0.0 1.0 0.00 0.00 0.00 59 1008.9
20260502062453 58 130 1.0 2.0 0.00 0.00 0.00 60 1009.0
20260502061953 57 123 2.0 3.0 0.00 0.00 0.00 62 1008.8
20260502061452 56 131 2.0 3.0 0.00 0.00 0.00 63 1008.9
20260502060952 57 124 1.0 3.0 0.00 0.00 0.00 63 1008.9
20260502060452 56 139 1.0 1.0 0.00 0.00 0.00 64 1008.9
20260502055950 55 122 1.0 2.0 0.00 0.00 0.00 65 1008.8
20260502055450 55 143 0.0 2.0 0.00 0.00 0.00 67 1009.0
20260502054949 55 145 1.0 2.0 0.00 0.00 0.00 67 1008.9
20260502054448 54 123 0.0 2.0 0.00 0.00 0.00 68 1008.9
20260502053948 53 152 1.0 2.0 0.00 0.00 0.00 68 1008.8
20260502053447 53 152 1.0 1.0 0.00 0.00 0.00 70 1008.8
20260502052947 52 125 0.0 1.0 0.00 0.00 0.00 72 1008.9
20260502052446 52 162 1.0 2.0 0.00 0.00 0.00 74 1008.9
20260502051945 51 114 0.0 2.0 0.00 0.00 0.00 75 1009.0
20260502051444 51 141 1.0 2.0 0.00 0.00 0.00 75 1008.8
20260502050944 50 138 0.0 1.0 0.00 0.00 0.00 76 1008.6
20260502050444 50 139 3.0 3.0 0.00 0.00 0.00 75 1008.8
20260502045943 50 119 0.0 2.0 0.00 0.00 0.00 76 1008.7
20260502045443 49 107 1.0 1.0 0.00 0.00 0.00 77 1008.8
20260502044942 48 126 1.0 2.0 0.00 0.00 0.00 77 1008.7
20260502044441 50 106 3.0 3.0 0.00 0.00 0.00 74 1008.7
20260502043941 50 80 0.0 0.0 0.00 0.00 0.00 74 1008.7
20260502043441 51 85 1.0 2.0 0.00 0.00 0.00 71 1008.6
20260502042940 51 77 0.0 0.0 0.00 0.00 0.00 72 1008.7
20260502042440 51 91 0.0 0.0 0.00 0.00 0.00 73 1008.7
20260502041939 50 88 0.0 0.0 0.00 0.00 0.00 75 1008.6
20260502041439 50 340 1.0 2.0 0.00 0.00 0.00 76 1008.6
20260502040938 50 76 0.0 0.0 0.00 0.00 0.00 75 1008.5
20260502040438 50 349 0.0 2.0 0.00 0.00 0.00 77 1008.7
20260502035938 50 297 3.0 3.0 0.00 0.00 0.00 76 1008.6
20260502035438 50 310 2.0 2.0 0.00 0.00 0.00 76 1008.6
20260502034937 50 299 2.0 3.0 0.00 0.00 0.00 76 1008.7
20260502034437 50 300 2.0 2.0 0.00 0.00 0.00 75 1008.7